308  
ASUS44 KLUB 200510  
RWRLUB  
WEST TEXAS WEATHER ROUNDUP  
NATIONAL WEATHER SERVICE LUBBOCK TX  
1200 AM CDT THU JUN 20 2019  
 
NOTE: "FAIR" INDICATES FEW OR NO CLOUDS BELOW 12,000 FEET WITH NO  
SIGNIFICANT WEATHER AND/OR S TO VISIBILITY
.  
 
TXZ004-006>008-010-012-014-016-OKZ002-200600-  
TEXAS PANHANDLE/OKLAHOMA PANHANDLE  
 
CITY SKY/WX TMP DP RH WIND PRES REMARKS
 
AMARILLO CLEAR 68 54 60 SE12 29.85S  
BORGER CLEAR 76 58 53 S8 29.82S  
CANADIAN CLEAR 71 63 76 S3 29.79S  
DALHART CLEAR 66 55 67 SE7 29.87S  
DUMAS CLEAR 65 57 77 SE5 29.86S  
GUYMON CLEAR 71 55 56 SE5 29.81S  
HEREFORD CLEAR 69 57 66 SE8 29.88S  
PAMPA CLEAR 67 61 79 SE8 29.85S  
PERRYTON CLEAR 69 61 74 SE6 29.80S  

 
 
TXZ026-029-035-045-048-200600-  
SOUTHERN PANHANDLE/SOUTH PLAINS/ROLLING PLAINS  
 
CITY SKY/WX TMP DP RH WIND PRES REMARKS
 
CHILDRESS CLEAR 77 63 61 SE8 29.79S  
SEMINOLE CLEAR 74 33 22 W9 29.89S  
LUBBOCK PTCLDY 74 67 78 SE12 29.86R  
PLAINVIEW CLEAR 71 64 80 SE9 29.86S  
SNYDER CLEAR 74 69 83 SE6 29.83R  

 
 
TXZ052-054-060>062-072-078-127-140-154-169-200600-  
PERMIAN BASIN/CONCHO VALLEY/BIG COUNTRY/EDWARDS PLATEAU  
 
CITY SKY/WX TMP DP RH WIND PRES REMARKS
 
ABILENE CLEAR 72 63 73 CALM 29.79S  
BIG SPRING CLEAR 77 54 43 E8 29.83S  
BRADY PTCLDY 73 59 60 SE5 29.83R  
JUNCTION CLEAR 84 71 65 S3 29.82R  
MIDLAND CLEAR 79 42 26 W6 29.81S  
ODESSA CLEAR 80 37 21 W6 29.83S  
SAN ANGELO CLEAR 77 66 68 NE3 29.80R  
SONORA CLEAR 82 70 65 S5 29.88R  
SWEETWATER CLEAR 73 64 73 SE6 29.85R  
WINK CLEAR 85 22 10 W13 29.81R  

 
 
TXZ055-058-074-075-080-082-200600-  
FAR WEST/SOUTHWEST MOUNTAINS/TRANS PECOS  
 
CITY SKY/WX TMP DP RH WIND PRES REMARKS
 
ALPINE CLEAR 71 44 38 SW9 30.06S  
DRYDEN N/A 79 68 69 SW3 29.80R  
EL PASO CLEAR 87 20 8 CALM 29.95R  
FORT STOCKTON CLEAR 78 40 25 SW13 29.86R  
GUADALUPE PASS CLEAR 80 20 10 W20 30.07S  
MARFA CLEAR 62 57 83 N6 30.06  
PECOS CLEAR 80 26 14 SW7 29.83R  
PRESIDIO FAIR 88 38 17 N8 29.88S  

 
 
TXZ014-016-019-021>030-083-200600  
TEXAS TECH WEST TEXAS MESONET/TEXAS PANHANDLE/NORTHERN SOUTH PLAINS  
 
CITY SKY/WX TMP DP RH WIND PRES REMARKS
 
ABERNATHY 5ENE N/A 73 64 73 SE10 29.88S  
AMARILLO 9NNE N/A 69 56 63 SE8 29.85S  
AMARILLO 7SSE N/A 68 57 68 SE10 29.88S  
AMHERST 1NE N/A 72 61 68 SE12 29.87S  
BOOTLEG 11WNW N/A 72 51 48 SE16 29.94R  
CANADIAN 6E N/A 68 62 82 E3 29.77S  
CAPROCK CYN SP N/A 72 65 80 S8 29.84S  
CHILDRESS 2NNE N/A 72 63 72 SE9 29.78F  
CLARENDON 2WSW N/A 70 61 73 SE9 29.83F  
DIMMITT 2NE N/A 69 58 66 SE10 29.89S  
FLOYDADA 2NNE N/A 69 65 85 SE7 29.87R  
FRIONA 2NE N/A 67 55 65 SE5 29.91R  
GOODLETT 3W N/A 74 63 69 E7 29.76F  
HART 3N N/A 71 62 73 SE10 29.88S  
HEREFORD 2NW N/A 72 55 54 SE6 29.88S  
MCLEAN 1E N/A 70 62 76 SE5 29.82S  
MEMPHIS 1NE N/A 73 63 71 CALM 29.79F  
MULESHOE 2SSW N/A 69 60 73 E7 29.88S  
OLTON 6S N/A 69 64 81 SE9 29.87S  
PALO DURO SP N/A 73 58 59 SE5 29.88S  
PAMPA 2E N/A 66 61 84 SE7 29.84F  
PLAINVIEW 1S N/A 72 66 82 SE8 29.86S  
SILVERTON 7ESE N/A 69 63 82 SE7 29.87R  
TULIA 2ENE N/A 70 60 69 SE10 29.87S  
TURKEY 2WSW N/A 74 63 67 SE7 29.82S  
UMBARGER 3NNE N/A 70 57 62 SE8 29.89S  

 
 
TXZ033>036-039>041-045>048-200600  
TEXAS TECH WEST TEXAS MESONET/SOUTH PLAINS  
 
CITY SKY/WX TMP DP RH WIND PRES REMARKS
 
AIKEN 3WSW N/A 72 66 80 SE9 29.88S  
ANDREWS 2NE N/A 80 30 16 SW8 29.85S  
ANTON 6SSW N/A 73 62 69 E10 29.86S  
BROWNFIELD 2S N/A 73 63 68 SE7 29.86S  
DENVR CTY 7WNW N/A 76 38 25 SW10 29.86F  
GAIL 2ESE N/A 73 64 73 SE2 29.82R  
LAMESA 2SE N/A 74 58 57 E5 29.84S  
LUBBOCK 3WNW N/A 75 64 68 E7 29.87R  
MORTON 1ENE N/A 73 54 51 E10 29.88R  
ODONNELL 1N N/A 75 62 65 E7 29.85R  
PLAINS 3N N/A 74 42 32 SW7 29.87S  
RALLS 1SE N/A 74 62 65 E10 29.88R  
REESE CENTER N/A 71 63 77 E7 29.87R  
SEAGRAVES 1SW N/A 77 57 49 E3 29.85R  
SEMINOLE 2NNE N/A 77 34 20 SW8 29.84S  
SLATON 2NE N/A 74 67 79 E8 29.86S  
SNYDER 3E N/A 72 65 79 E9 29.82R  
SUNDOWN 8SW N/A 71 55 58 E9 29.87S  
TAHOKA 3NNE N/A 72 65 77 E8 29.86R  
WOLFFORTH 6SSW N/A 70 60 70 E7 29.87S  

 
 
TXZ031-032-036>038-042>044-200600-  
TEXAS TECH WEST TEXAS MESONET/ROLLING PLAINS  
 
CITY SKY/WX TMP DP RH WIND PRES REMARKS
 
ASPERMONT 3NE N/A 75 69 82 SE5 29.78S  
FLUVANNA 3WNW N/A 73 64 71 E8 29.83S  
GRAHAM 5SSW N/A 76 65 70 E5 29.85R  
GUTHRIE 10WSW N/A 74 67 78 SE5 29.80R  
HASKELL 1NW N/A 77 68 72 SE6 29.78R  
JAYTON 1SSE N/A 74 67 77 SE6 29.80S  
KNOX CITY 3NW N/A 77 69 77 E3 29.77S  
LK A HENRY 1NW N/A 77 69 77 E6 29.81F  
NORTHFIELD 1S N/A 74 62 66 SE8 29.79S  
ODELL 4ENE N/A 74 67 78 SE6 29.76S  
PADUCAH 10SW N/A 74 67 79 SE3 29.79F  
POST 1NE N/A 74 67 78 E5 29.84R  
RRING SPRGS 3N N/A 73 66 79 SE7 29.84S  
SEYMOUR 3NW N/A 76 68 77 NE2 29.75S  
SPUR 1W N/A 76 65 67 NE2 29.81S  
WEINERT 2NNE N/A 76 69 80 E7 29.77S  
WHITE RVR 6NE N/A 74 65 74 E5 29.85R  

 
 
TXZ052-054-060>062-072-078-127-140-154-169-200600-  
TEXAS TECH WEST TEXAS MESONET/PERMIAN BASIN/  
CONCHO VALLEY/BIG COUNTRY/EDWARDS PLATEAU  
 
CITY SKY/WX TMP DP RH WIND PRES REMARKS
 
COYANOSA 2N N/A 77 36 22 SW8 29.82S  
JUNCTION 1SSW N/A 85 71 62 S9 29.82R  
MERTZON 3NNE N/A 75 67 74 NE7 29.83R  
SAN ANGELO 7NW N/A 74 61 64 E6 29.81R  
STRLNG CT 4WSW N/A 73 60 63 NE1 29.83S  
ST LAWRNCE 5SW N/A 83 61 47 S12 29.82R  
SWEETWATR 11SW N/A 74 62 66 E8 29.85R  
WALL 1E N/A 78 64 62 E8 29.82R  

 
 
TXZ055-058-074-075-080-082-200600-  
TEXAS TECH WEST TEXAS MESONET/FAR WEST/SOUTHWEST MOUNTAINS/TRANS PECOS  
 
CITY SKY/WX TMP DP RH WIND PRES REMARKS
 
PRSMN GAP BBNP N/A 82 61 48 CALM 29.87S  
GUADLPE MTN NP N/A 80 24 13 W14 30.09S  

 
 
 
CLICK HERE TO GO TO PREVIOUS BULLETINS.

The Nexlab TX Page Main Text Page